San Antonio, TX

8:05 AM CST on January 16, 2017 (GMT -0600)
San Antonio International

Weather History for KSAT - October, 2013

Change the Weather History Date:

Friday, October 25, 2013

  Actual Average Record
Temperature  
Mean Temperature 68 °F 69 °F  
Max Temperature 82 °F 80 °F 91 °F (1991)
Min Temperature 54 °F 58 °F 36 °F (1945)
Degree Days  
Heating Degree Days 0 2  
Month to date heating degree days 11 16  
Since 1 July heating degree days 11 18  
Cooling Degree Days 3 5  
Month to date cooling degree days 212 191  
Year to date cooling degree days 3363 3025  
Growing Degree Days 18 (Base 50)    
Moisture  
Dew Point 58 °F    
Average Humidity 69    
Maximum Humidity 93    
Minimum Humidity 45    
Precipitation  
Precipitation T in 0.13 in 2.16 in (1975)
Month to date precipitation 1.97 3.43  
Year to date precipitation 29.11 27.40  
Snow  
Snow 0.00 in - - ()
Month to date snowfall 0.0  
Since 1 July snowfall 0.0  
Since 1 September snowfall 0.0  
Snow Depth 0.00 in    
Sea Level Pressure  
Sea Level Pressure 30.21 in    
Wind  
Wind Speed 8 mph (ESE)    
Max Wind Speed 16 mph    
Max Gust Speed 23 mph    
Visibility 10 miles    
Events      
T = Trace of Precipitation, MM = Missing Value Source: NWS Daily Summary

Daily Weather History Graph

Daily Weather History Graph

Search for Another Location

Airport or City:

Trip Planner

Search our weather history database for the weather conditions in past years. The results will help you decide how hot, cold, wet, or windy it might be!

Date:

Astronomy

Oct. 25, 2013 Rise Set
Actual Time 7:42 AM CDT 6:53 PM CDT
Civil Twilight 7:17 AM CDT 7:17 PM CDT
Nautical Twilight 6:49 AM CDT 7:45 PM CDT
Astronomical Twilight 6:22 AM CDT 8:13 PM CDT
Moon No Moon Rise 1:16 PM CDT (10/25)
Length of Visible Light 11h 59m
Length of Day
11h 10m
Waning Gibbous, 62% of the Moon is Illuminated
Oct 25
Waning Gibbous
Oct 26
Last Quarter
Nov 3
New
Nov 9
First Quarter
Nov 17
Full

Hourly Weather History & Observations

Time (CDT) Temp. Heat Index Dew Point Humidity Pressure Visibility Wind Dir Wind Speed Gust Speed Precip Events Conditions
12:51 AM 62.1 °F - 54.0 °F 75% 30.19 in 10.0 mi Calm Calm - N/A   Clear
1:51 AM 59.0 °F - 53.1 °F 81% 30.20 in 10.0 mi NW 3.5 mph - N/A   Clear
2:51 AM 57.0 °F - 53.1 °F 87% 30.20 in 10.0 mi NW 3.5 mph - N/A   Clear
3:51 AM 55.9 °F - 52.0 °F 87% 30.20 in 10.0 mi WNW 4.6 mph - N/A   Clear
4:51 AM 55.0 °F - 52.0 °F 89% 30.21 in 10.0 mi WNW 3.5 mph - N/A   Clear
5:51 AM 55.0 °F - 52.0 °F 89% 30.22 in 10.0 mi WNW 4.6 mph - N/A   Clear
6:51 AM 54.0 °F - 51.1 °F 90% 30.23 in 10.0 mi NW 3.5 mph - N/A   Clear
7:51 AM 55.0 °F - 52.0 °F 89% 30.25 in 10.0 mi WNW 4.6 mph - N/A   Clear
8:51 AM 62.1 °F - 57.0 °F 84% 30.26 in 10.0 mi NNW 3.5 mph - N/A   Clear
9:51 AM 69.1 °F - 60.1 °F 73% 30.27 in 10.0 mi ENE 3.5 mph - N/A   Partly Cloudy
10:51 AM 73.0 °F - 60.1 °F 64% 30.28 in 10.0 mi East 8.1 mph - N/A   Scattered Clouds
11:51 AM 77.0 °F - 61.0 °F 58% 30.27 in 10.0 mi ESE 12.7 mph - N/A   Scattered Clouds
12:51 PM 77.0 °F - 59.0 °F 54% 30.25 in 10.0 mi SSE 8.1 mph - N/A   Mostly Cloudy
1:51 PM 79.0 °F - 60.1 °F 52% 30.22 in 10.0 mi ESE 10.4 mph - N/A   Mostly Cloudy
2:51 PM 79.0 °F - 57.9 °F 48% 30.19 in 10.0 mi SE 11.5 mph - N/A   Mostly Cloudy
3:51 PM 80.1 °F 80.6 °F 57.9 °F 47% 30.17 in 10.0 mi SSE 8.1 mph - N/A   Mostly Cloudy
4:51 PM 80.1 °F 80.6 °F 57.9 °F 47% 30.16 in 10.0 mi South 10.4 mph - N/A   Mostly Cloudy
5:51 PM 79.0 °F - 60.1 °F 52% 30.16 in 10.0 mi ESE 13.8 mph - N/A   Mostly Cloudy
6:51 PM 75.0 °F - 61.0 °F 62% 30.16 in 10.0 mi East 9.2 mph - N/A   Scattered Clouds
7:51 PM 73.0 °F - 61.0 °F 66% 30.17 in 10.0 mi ESE 6.9 mph - 0.00 in   Scattered Clouds
8:51 PM 73.0 °F - 62.1 °F 68% 30.19 in 10.0 mi SE 10.4 mph - N/A   Mostly Cloudy
9:51 PM 72.0 °F - 63.0 °F 73% 30.19 in 10.0 mi SE 11.5 mph - N/A   Mostly Cloudy
10:51 PM 69.1 °F - 63.0 °F 81% 30.19 in 10.0 mi SE 8.1 mph - N/A   Mostly Cloudy
11:37 PM 69.8 °F - 64.4 °F 83% 30.23 in 10.0 mi ESE 6.9 mph - N/A   Mostly Cloudy
11:51 PM 69.1 °F - 64.0 °F 84% 30.18 in 10.0 mi ESE 8.1 mph - N/A   Mostly Cloudy